User: anonymous   Login
Location: Kunchanapalle
(16.4623°N, 80.6176°E)
Time: 11:33:29
(UTC+00:00)
Language:

Hubble Space Telescope - Orbit

View from above orbital plane
View from above orbital plane
View from above satellite
View from above satellite

Ground track
Ground track

The orbit data is extracted from the following two-line orbital elements,

1 20580U 90037B   20293.21241748 +.00000533 +00000-0 +21432-4 0  9996
2 20580 028.4692 221.0785 0002568 348.8123 156.4689 15.09452168474772
Epoch (UTC): 19 October 2020 05:05:52
Eccentricity: 0.0002568
inclination: 28.4692°
perigee height: 536 km
apogee height: 539 km
right ascension of ascending node: 221.0785°
argument of perigee: 348.8123°
revolutions per day: 15.09452168
mean anomaly at epoch: 156.4689°
orbit number at epoch: 47477

The dashed part of the orbit path shows where the satellite is in the earth's shadow,  

DLR